Tracking 18957 objects as of 22-Jan-2018
HD Live streaming from Space Station
objects crossing your sky now

FENGYUN 1C DEB

Track FENGYUN 1C DEB now!
10-day predictions


NORAD ID: 30478
Int'l Code: 1999-025AGR
Perigee: 615.6 km
Apogee: 694.6 km
Inclination: 98.9 °
Period: 97.7 minutes
Semi major axis: 7026 km
RCS: 0.032 m2 (small)
Launch date: May 10, 1999
Source: People's Republic of China (PRC)
Launch site: Taiyaun Space Center, China (TSC)

Note: This is SATELLITE DEBRIS
aabbcc
Your satellite tracking list
Your tracking list is empty




NASA's NSSDC Master Catalog

Two Line Element Set (TLE):
1 30478U 99025AGR 18021.51950955 +.00002379 +00000-0 +36127-3 0  9991
2 30478 098.9242 305.4971 0056220 165.2162 244.2516 14.74126917579888
Source of the keplerian elements: AFSPC